Vorticity
7 8 8 8 8 9 9 10 13 16 18 20 21 21 21 20 21 22 25 28 28 25 22 19 19 20 19 17 14 13 13 14 16 18 20 21 23 26 29 31 31 30 29 27 24 22 19 18 18 18 18 19 21 23 23 22 20 18 16 15 15 16 18 20 20 19 18 18 19
8 8 8 7 7 8 8 10 12 16 19 22 22 22 21 21 22 24 28 30 26 22 20 19 19 17 14 12 8 7 8 10 11 10 8 6 10 14 19 23 25 26 27 28 28 26 25 23 21 20 20 21 23 24 24 22 19 17 16 16 17 20 21 21 19 18 17 18 19
8 7 7 7 7 8 8 10 12 16 19 22 23 22 21 21 24 28 30 29 23 19 18 18 15 11 7 6 4 4 4 5 4 -0 -3 -2 4 10 14 16 16 18 20 23 25 27 28 28 26 25 25 25 26 26 24 20 18 17 17 18 21 22 21 17 16 16 17 18 18
8 7 7 7 7 8 8 9 12 16 19 21 22 22 22 22 27 31 31 27 21 17 15 12 8 5 2 2 3 3 3 3 0 -1 -0 5 11 14 15 14 13 13 14 16 19 22 26 28 29 29 29 29 28 26 23 20 18 18 19 21 23 20 16 12 14 16 17 17 14
8 7 7 7 7 7 8 9 12 15 18 21 21 21 22 24 30 33 31 23 18 14 10 5 3 2 2 2 4 5 7 8 9 11 15 20 21 20 17 15 14 13 13 14 16 19 22 26 29 30 31 31 29 26 23 20 20 20 21 23 19 12 7 8 14 16 15 12 8
7 7 7 8 7 6 7 8 12 15 18 21 21 21 22 26 33 34 30 20 16 10 5 0 0 2 3 5 7 11 16 20 24 28 30 30 26 23 20 18 17 16 16 17 19 20 23 26 29 31 32 31 29 26 22 20 21 22 23 20 8 1 2 10 17 15 10 6 4
7 7 7 8 7 6 6 8 11 14 18 21 22 22 23 27 35 35 29 19 12 4 -2 -3 -1 1 4 8 12 17 21 26 32 35 35 30 26 25 26 26 25 23 22 22 24 25 27 30 32 33 32 30 25 20 17 17 22 23 19 7 -3 -2 7 18 16 10 4 3 4
7 7 7 7 6 6 6 7 10 14 18 22 23 22 23 28 36 36 28 17 4 -2 -5 -5 -3 1 6 11 13 15 18 22 30 31 28 23 23 25 28 31 34 33 30 25 25 28 32 33 32 30 27 22 16 13 14 20 22 16 7 -3 2 10 18 21 12 6 3 5 3
8 8 8 7 6 6 6 7 10 14 19 22 23 23 24 28 36 35 27 12 1 -4 -6 -6 -3 2 7 10 10 10 12 16 19 17 13 13 16 20 24 28 34 40 40 30 25 28 31 29 22 18 15 12 11 14 17 20 15 8 4 7 18 22 21 15 8 5 4 3 0
8 8 7 7 7 6 6 7 11 15 19 22 23 23 24 28 36 35 26 10 2 -3 -6 -6 -3 0 3 5 5 6 7 10 7 5 4 7 10 12 15 19 26 37 44 43 31 28 26 16 9 7 8 9 10 12 13 13 9 10 15 23 22 18 12 8 5 4 1 -2 -2
8 8 8 7 6 6 6 7 10 14 18 22 23 23 23 26 35 35 28 13 3 -3 -5 -4 -4 -3 -1 -0 1 2 4 6 5 6 8 9 7 7 9 12 17 27 38 50 43 34 23 9 2 2 5 6 5 8 13 18 19 23 25 22 13 6 4 3 2 1 -0 0 4
8 8 8 7 6 6 6 7 10 13 18 22 23 23 23 25 32 35 30 17 4 -2 -4 -4 -6 -6 -5 -4 -3 -0 2 4 7 11 14 14 10 8 7 7 11 17 27 41 48 42 30 14 6 4 3 1 2 14 28 37 35 30 20 7 2 1 2 3 3 3 5 8 10
8 8 7 7 6 6 6 7 10 13 17 21 23 23 23 23 29 33 32 22 9 1 -3 -4 -6 -6 -6 -7 -6 -3 0 4 8 11 14 17 15 12 9 6 7 11 17 25 37 42 38 26 18 12 8 2 7 24 40 42 31 18 5 -4 -1 2 5 6 5 6 8 10 11
8 8 8 7 6 6 6 7 10 13 17 21 23 23 22 22 26 30 32 28 16 6 -1 -3 -4 -5 -6 -8 -8 -6 -1 4 6 8 11 17 18 17 13 8 7 8 10 14 21 30 35 32 26 20 16 11 20 29 33 23 10 2 -2 -3 2 5 7 6 6 6 7 8 9
9 8 8 7 6 6 6 7 10 13 16 20 22 23 22 21 22 26 30 32 22 12 3 -2 -2 -3 -4 -6 -8 -8 -5 1 3 4 7 14 19 20 17 12 8 7 8 10 11 17 24 28 24 22 21 22 28 24 14 2 -2 -4 -2 2 6 8 9 9 9 9 8 7 6
9 8 8 7 7 6 7 8 10 12 16 19 21 22 22 20 20 22 26 30 27 19 10 2 0 -1 -2 -3 -6 -8 -9 -6 -3 -1 2 10 17 21 20 14 10 8 8 9 8 10 15 21 21 22 25 31 27 13 -3 -11 -8 -4 2 8 11 13 14 14 14 14 12 10 6
9 8 8 8 7 7 7 8 9 12 15 18 21 22 22 20 18 18 20 24 27 24 17 8 3 0 -1 -1 -3 -6 -10 -11 -10 -8 -4 2 13 19 21 18 12 10 10 10 9 9 11 16 18 20 23 26 17 1 -13 -14 -6 2 8 13 16 16 16 16 15 14 12 9 6
9 9 8 8 7 7 7 8 9 11 14 17 20 22 22 20 18 16 16 17 22 24 22 16 9 3 0 0 -1 -3 -7 -10 -13 -13 -10 -5 5 14 20 20 14 12 12 13 11 10 11 14 16 17 16 14 6 -3 -8 -5 4 10 14 16 16 15 13 11 10 8 6 3 3
9 9 9 8 8 8 7 8 9 11 13 16 19 21 22 21 18 16 14 13 16 20 22 22 16 9 2 -0 0 -0 -2 -6 -10 -12 -13 -10 -3 6 14 19 15 13 13 16 14 13 12 13 15 14 13 12 10 8 8 10 13 15 15 14 13 11 9 6 4 2 0 -1 5
9 9 9 9 8 8 8 8 9 10 12 15 18 20 22 22 20 17 14 12 12 14 19 24 22 15 7 0 1 2 3 1 -4 -8 -10 -10 -7 -2 5 13 13 11 11 14 16 16 16 15 15 13 12 11 12 13 13 13 13 12 11 10 10 9 8 6 3 1 1 2 3
10 10 10 9 8 8 8 8 9 10 11 13 17 19 21 22 22 20 17 13 12 12 15 20 23 20 13 4 3 4 6 6 3 -0 -4 -6 -5 -5 -3 3 6 7 7 9 13 17 20 21 18 15 12 8 6 5 4 4 5 5 6 6 6 7 9 9 5 3 2 4 -0
10 10 10 9 9 8 8 8 8 9 11 13 15 18 20 22 23 22 19 16 13 13 14 17 21 22 18 10 6 5 6 8 9 7 4 2 1 -3 -6 -4 0 2 2 3 6 12 19 24 25 23 18 12 6 1 -4 -6 -5 -2 1 4 4 5 7 11 8 4 -1 -1 2
10 10 10 10 9 8 8 8 8 9 10 12 14 17 19 22 23 22 21 19 17 15 15 17 20 21 20 15 11 8 7 8 10 12 13 12 8 2 -4 -7 -3 -2 -2 -0 2 5 10 16 23 27 26 23 18 10 0 -10 -13 -8 -1 5 4 5 6 8 7 3 -1 -5 0
10 10 10 10 10 9 8 8 8 9 10 11 13 15 18 20 22 22 22 22 20 18 17 18 20 20 20 17 16 11 7 8 9 13 17 20 15 8 2 -3 -2 -3 -3 -0 1 2 4 6 10 15 19 22 26 25 17 2 -7 -5 2 9 8 8 8 7 4 3 1 -3 -2
9 10 10 10 10 9 8 8 8 9 10 10 12 14 16 18 20 22 22 22 22 20 19 19 21 21 19 16 19 14 8 10 9 12 16 20 18 15 11 6 3 -1 -3 1 2 3 3 4 4 5 6 8 13 18 20 13 6 6 9 13 13 14 14 12 8 5 1 -3 -4
9 10 10 11 10 9 9 9 9 9 9 10 11 13 15 17 19 21 22 22 23 22 21 20 22 22 20 16 18 14 11 13 11 13 15 14 14 16 18 16 11 5 1 1 2 4 5 6 6 5 4 3 2 4 6 7 7 8 8 9 10 12 14 14 12 9 5 2 0
8 9 10 10 10 10 9 9 8 8 9 9 10 12 13 15 18 20 21 22 23 23 22 21 23 23 21 16 16 14 13 16 13 13 14 9 6 8 13 17 14 10 5 -1 1 3 6 7 9 8 7 5 4 2 1 1 2 3 3 2 4 5 7 8 9 9 9 9 8
8 8 9 10 10 10 10 9 9 9 9 9 10 11 12 13 16 18 20 22 23 23 23 22 24 24 22 18 16 13 12 14 13 13 11 6 0 0 3 7 8 10 7 -2 1 4 7 8 10 10 10 9 8 7 5 4 3 2 2 1 2 4 5 5 5 6 7 7 8
7 8 9 10 10 10 10 10 9 9 9 9 10 10 11 12 14 16 19 21 22 23 23 22 22 23 23 20 16 12 11 12 14 13 11 7 6 3 -1 -6 -2 4 6 -3 5 8 9 9 9 9 10 11 11 11 10 9 8 6 6 6 6 6 7 7 7 7 7 8 8
7 7 8 9 10 10 10 10 10 9 8 8 9 10 10 11 12 14 17 19 21 22 22 22 21 22 23 22 18 15 12 10 12 12 11 9 9 6 1 -4 -7 -3 -0 -5 5 10 10 9 8 8 8 9 10 10 11 11 11 11 11 10 9 9 9 9 9 10 10 10 11
7 7 8 8 9 10 10 10 10 10 9 8 9 9 10 10 12 13 15 17 19 21 22 23 21 22 23 24 21 18 14 11 10 10 9 8 8 9 9 3 -8 -14 -14 -11 -6 2 8 8 8 8 8 8 8 8 9 10 10 11 12 12 12 11 11 11 12 12 12 12 12
7 7 7 8 9 10 10 10 10 10 9 9 8 9 10 10 11 12 14 15 17 19 21 23 21 20 21 23 23 20 17 13 12 10 9 7 7 10 12 9 2 -4 -6 -2 -7 -3 4 6 7 8 9 10 9 9 8 9 9 10 10 11 12 13 13 13 14 14 14 14 14
7 7 8 8 9 9 10 10 10 10 10 9 9 9 9 10 10 11 12 13 15 17 19 21 21 20 19 20 21 20 18 15 12 9 7 6 5 6 7 8 10 7 3 1 -2 -3 -0 5 5 6 8 10 10 10 10 10 10 11 11 12 13 14 14 14 14 15 15 15 15
7 8 8 8 8 9 9 10 10 11 10 10 9 9 8 8 9 10 12 13 14 17 19 20 21 20 19 18 19 19 18 16 13 9 7 5 5 5 6 7 9 10 10 6 5 2 0 4 5 6 6 8 10 11 11 12 12 13 13 14 14 14 14 15 15 15 15 15 15
8 8 8 8 8 9 9 10 10 11 11 11 10 9 9 8 9 10 11 12 13 16 18 20 21 21 20 19 19 18 17 16 13 10 8 6 6 6 7 8 10 11 12 11 10 7 4 3 7 8 8 7 9 11 12 13 14 14 14 14 14 13 13 14 14 14 14 14 14
8 8 8 8 8 9 9 10 10 11 11 11 10 10 9 9 9 9 10 10 12 14 17 19 21 22 22 22 21 20 19 18 15 13 10 9 8 8 9 10 12 14 15 17 16 13 9 4 8 10 10 9 9 10 12 14 14 15 14 14 14 13 13 12 13 13 13 14 13
8 8 8 8 9 9 9 10 10 10 11 11 11 10 10 9 9 8 9 9 11 13 15 17 19 21 22 23 22 22 21 20 18 16 13 12 12 11 11 13 14 16 19 22 23 22 18 10 8 8 11 12 11 11 12 13 14 14 14 13 13 13 13 12 12 12 13 14 14
9 9 9 9 9 9 9 9 10 10 11 11 11 11 11 10 9 8 8 9 10 11 13 15 17 19 21 22 22 22 22 23 22 21 18 16 16 16 15 16 16 17 19 23 27 29 28 20 10 7 9 13 13 12 11 12 13 13 13 13 12 12 12 13 12 13 14 15 15
9 9 9 9 9 9 9 9 10 10 10 10 11 11 11 11 10 9 8 9 10 10 11 13 15 17 19 20 21 22 22 23 24 24 23 21 20 21 21 20 16 14 13 15 21 28 32 32 16 8 7 12 13 13 12 13 14 14 14 14 13 13 13 13 14 14 16 17 18
9 10 10 10 9 9 9 9 10 10 10 10 11 11 12 11 11 10 9 9 9 10 10 12 13 15 16 18 19 20 21 22 24 25 26 25 24 24 24 22 15 10 6 4 7 14 23 33 27 16 8 8 13 15 16 16 17 17 17 16 15 14 14 14 15 17 18 19 20
10 10 10 10 10 10 10 10 10 10 10 10 10 11 11 12 11 10 10 9 9 9 10 11 12 13 14 16 17 18 19 20 22 24 26 27 26 25 24 21 14 7 2 -2 -4 -1 6 21 29 25 15 7 11 17 21 22 21 20 18 17 16 17 17 18 18 19 20 22 23
Height
3034 3030 3026 3022 3019 3015 3011 3007 3003 2998 2994 2990 2985 2981 2978 2974 2970 2967 2963 2960 2957 2954 2951 2949 2946 2944 2941 2938 2935 2932 2930 2927 2924 2921 2919 2916 2914 2911 2908 2906 2904 2901 2900 2898 2896 2895 2894 2893 2892 2891 2890 2890 2890 2890 2891 2891 2892 2892 2893 2894 2895 2895 2896 2897 2898 2898 2898 2898 2898
3033 3030 3025 3022 3018 3014 3010 3006 3002 2997 2993 2988 2984 2980 2977 2973 2969 2966 2963 2960 2956 2954 2951 2949 2946 2944 2941 2938 2935 2932 2930 2927 2925 2922 2919 2916 2914 2911 2908 2905 2903 2901 2899 2897 2895 2894 2893 2891 2890 2889 2889 2889 2889 2889 2890 2890 2890 2891 2892 2893 2894 2895 2896 2897 2897 2897 2897 2897 2897
3033 3029 3025 3021 3018 3014 3009 3005 3001 2996 2992 2988 2983 2980 2975 2972 2969 2965 2962 2959 2957 2954 2952 2949 2947 2944 2941 2938 2936 2933 2930 2928 2925 2922 2919 2916 2913 2910 2908 2905 2902 2900 2899 2897 2895 2893 2892 2890 2889 2888 2888 2887 2888 2888 2889 2889 2890 2890 2891 2893 2894 2895 2895 2896 2896 2897 2897 2897 2897
3032 3029 3025 3021 3017 3013 3009 3005 3000 2995 2991 2987 2982 2979 2975 2971 2968 2965 2962 2959 2957 2955 2952 2950 2947 2944 2941 2939 2936 2934 2931 2929 2925 2922 2919 2916 2913 2910 2907 2905 2902 2900 2898 2896 2894 2893 2891 2890 2888 2887 2887 2887 2887 2887 2888 2888 2889 2890 2891 2892 2893 2894 2895 2895 2896 2896 2896 2897 2897
3031 3028 3025 3021 3016 3012 3008 3004 2999 2995 2990 2986 2982 2978 2975 2971 2968 2965 2962 2959 2957 2955 2952 2950 2947 2944 2942 2940 2937 2935 2932 2929 2926 2922 2919 2915 2912 2909 2906 2904 2901 2899 2897 2895 2894 2892 2890 2889 2888 2887 2886 2886 2887 2887 2888 2888 2889 2890 2891 2892 2893 2894 2895 2895 2895 2896 2896 2897 2897
3031 3027 3024 3020 3015 3011 3007 3003 2998 2994 2990 2985 2981 2978 2974 2970 2967 2964 2962 2960 2958 2955 2953 2950 2947 2945 2943 2940 2938 2935 2933 2929 2926 2922 2918 2915 2911 2908 2905 2903 2901 2899 2897 2895 2893 2891 2890 2888 2887 2886 2886 2886 2887 2887 2888 2888 2889 2890 2891 2892 2893 2894 2895 2895 2895 2896 2896 2897 2897
3031 3027 3023 3019 3015 3010 3006 3002 2997 2993 2989 2985 2981 2977 2974 2970 2967 2965 2962 2960 2958 2955 2953 2950 2948 2945 2943 2941 2939 2936 2933 2929 2926 2922 2919 2915 2911 2909 2905 2903 2901 2899 2897 2895 2893 2891 2890 2888 2887 2887 2887 2887 2887 2888 2888 2889 2890 2890 2891 2892 2893 2894 2895 2895 2896 2896 2897 2897 2897
3030 3026 3022 3018 3014 3010 3005 3001 2997 2993 2988 2984 2980 2977 2974 2970 2967 2965 2962 2960 2958 2955 2953 2951 2949 2946 2944 2942 2939 2936 2933 2930 2926 2923 2920 2916 2913 2910 2906 2904 2901 2899 2897 2896 2894 2892 2890 2889 2889 2888 2888 2889 2889 2889 2889 2890 2890 2891 2891 2892 2894 2894 2895 2896 2896 2896 2897 2897 2897
3029 3025 3021 3017 3013 3009 3005 3001 2997 2992 2988 2984 2980 2977 2973 2970 2967 2965 2962 2960 2958 2956 2954 2951 2950 2947 2945 2942 2939 2936 2933 2930 2928 2925 2921 2918 2915 2911 2908 2905 2902 2900 2899 2897 2895 2894 2892 2891 2891 2890 2890 2891 2891 2890 2890 2890 2891 2892 2892 2893 2894 2895 2895 2896 2896 2897 2897 2897 2897
3029 3025 3020 3017 3013 3009 3005 3000 2996 2992 2988 2984 2980 2977 2973 2970 2967 2965 2963 2960 2959 2956 2954 2952 2950 2948 2945 2943 2940 2937 2934 2932 2930 2926 2923 2920 2916 2913 2910 2907 2904 2901 2900 2898 2897 2895 2895 2894 2893 2893 2893 2892 2892 2892 2892 2892 2892 2893 2894 2895 2895 2895 2896 2896 2897 2897 2898 2898 2898
3028 3024 3020 3016 3012 3008 3004 3000 2996 2992 2988 2984 2980 2977 2973 2970 2967 2965 2963 2961 2959 2957 2955 2953 2951 2949 2946 2943 2941 2938 2936 2934 2931 2928 2924 2921 2918 2915 2912 2909 2906 2903 2901 2900 2898 2897 2897 2896 2895 2895 2895 2894 2894 2894 2894 2894 2894 2894 2895 2895 2896 2896 2896 2897 2897 2898 2898 2898 2898
3027 3023 3019 3015 3012 3008 3004 3000 2996 2992 2988 2984 2980 2977 2973 2970 2967 2965 2963 2961 2959 2957 2955 2953 2951 2949 2947 2945 2942 2939 2937 2935 2932 2929 2925 2922 2920 2917 2914 2911 2908 2906 2903 2902 2900 2899 2899 2898 2898 2897 2896 2895 2895 2895 2895 2895 2895 2895 2896 2896 2897 2897 2897 2897 2898 2898 2899 2899 2898
3027 3023 3019 3015 3011 3008 3004 3000 2996 2992 2988 2984 2980 2977 2973 2970 2967 2965 2963 2961 2959 2957 2955 2953 2952 2950 2948 2945 2943 2940 2938 2935 2933 2930 2927 2924 2921 2919 2916 2913 2910 2908 2906 2904 2903 2902 2901 2900 2900 2899 2898 2897 2897 2897 2897 2896 2896 2897 2897 2897 2898 2898 2898 2898 2899 2899 2899 2899 2898
3026 3022 3019 3015 3011 3007 3004 3000 2996 2992 2988 2984 2980 2976 2973 2970 2967 2965 2963 2961 2959 2957 2955 2954 2952 2950 2949 2946 2944 2942 2939 2936 2934 2931 2928 2926 2923 2920 2918 2915 2912 2910 2909 2907 2906 2905 2903 2902 2901 2900 2900 2899 2899 2899 2899 2898 2898 2899 2899 2899 2899 2899 2899 2899 2899 2899 2899 2898 2898
3026 3022 3018 3015 3011 3007 3004 3000 2996 2992 2988 2984 2980 2976 2973 2970 2968 2965 2963 2961 2959 2957 2956 2954 2952 2951 2949 2947 2945 2943 2940 2937 2935 2932 2930 2928 2925 2922 2919 2917 2915 2913 2911 2909 2908 2907 2906 2905 2904 2903 2901 2901 2901 2901 2901 2901 2901 2900 2900 2900 2900 2900 2900 2900 2900 2899 2899 2899 2898
3025 3022 3018 3014 3010 3007 3003 3000 2996 2992 2988 2984 2980 2976 2973 2970 2968 2965 2963 2961 2959 2957 2956 2954 2952 2951 2950 2948 2946 2944 2941 2938 2935 2933 2931 2930 2927 2924 2921 2919 2916 2915 2913 2912 2910 2909 2908 2907 2906 2905 2904 2903 2903 2903 2903 2903 2903 2903 2902 2902 2901 2901 2900 2900 2900 2899 2899 2899 2898
3025 3021 3018 3014 3010 3007 3003 3000 2995 2991 2987 2984 2980 2976 2973 2970 2968 2965 2963 2961 2959 2957 2956 2954 2952 2951 2950 2948 2946 2944 2942 2939 2937 2935 2933 2931 2929 2926 2924 2921 2918 2917 2916 2914 2912 2911 2910 2909 2908 2907 2907 2906 2905 2905 2905 2905 2904 2904 2903 2903 2902 2902 2901 2900 2900 2900 2899 2899 2899
3025 3021 3018 3014 3010 3007 3003 3000 2995 2991 2988 2984 2980 2976 2973 2970 2968 2966 2963 2961 2959 2957 2956 2954 2952 2951 2950 2948 2947 2945 2942 2940 2938 2936 2934 2932 2930 2928 2926 2923 2920 2919 2918 2916 2915 2913 2912 2911 2910 2910 2909 2909 2908 2907 2907 2906 2905 2905 2904 2903 2903 2902 2901 2901 2901 2900 2900 2899 2899
3025 3021 3018 3014 3010 3007 3003 3000 2995 2992 2988 2984 2980 2977 2973 2970 2968 2966 2964 2961 2959 2957 2955 2954 2952 2951 2950 2948 2947 2945 2943 2940 2939 2937 2935 2934 2932 2930 2928 2925 2923 2921 2920 2919 2917 2915 2914 2913 2912 2911 2910 2910 2909 2908 2907 2906 2906 2905 2904 2904 2903 2903 2902 2902 2902 2901 2901 2900 2900
3025 3021 3017 3014 3010 3007 3003 3000 2996 2992 2988 2984 2980 2977 2974 2971 2968 2965 2963 2961 2959 2957 2955 2954 2952 2951 2950 2948 2947 2945 2943 2941 2939 2937 2935 2934 2933 2931 2929 2927 2925 2923 2922 2921 2919 2917 2916 2914 2914 2913 2912 2911 2910 2909 2908 2907 2906 2906 2905 2905 2904 2904 2903 2903 2902 2902 2901 2900 2900
3025 3021 3017 3014 3010 3007 3003 3000 2996 2992 2988 2985 2981 2977 2974 2971 2968 2966 2963 2961 2959 2957 2955 2954 2952 2950 2949 2948 2946 2945 2943 2941 2940 2938 2936 2935 2934 2932 2930 2928 2926 2925 2923 2922 2921 2920 2918 2916 2915 2914 2913 2912 2911 2910 2909 2908 2907 2907 2906 2905 2905 2905 2904 2904 2903 2902 2901 2900 2900
3024 3021 3017 3014 3010 3007 3004 3000 2996 2993 2989 2985 2982 2978 2975 2971 2969 2966 2963 2961 2959 2957 2955 2954 2952 2950 2949 2947 2946 2945 2943 2942 2940 2938 2936 2935 2934 2932 2931 2929 2927 2925 2924 2923 2922 2921 2920 2919 2917 2916 2915 2914 2912 2911 2910 2909 2908 2908 2907 2906 2905 2905 2905 2904 2903 2903 2902 2900 2900
3024 3021 3017 3014 3011 3007 3004 3000 2997 2993 2990 2986 2982 2979 2975 2972 2969 2966 2964 2961 2959 2957 2955 2954 2952 2950 2949 2947 2946 2945 2943 2942 2940 2939 2937 2935 2934 2933 2931 2930 2928 2926 2925 2923 2922 2922 2921 2920 2919 2918 2916 2915 2914 2912 2911 2910 2909 2908 2908 2907 2906 2905 2905 2904 2904 2903 2902 2900 2900
3024 3021 3018 3014 3011 3008 3005 3001 2998 2994 2990 2987 2983 2980 2976 2973 2969 2966 2964 2961 2959 2957 2955 2953 2952 2950 2949 2947 2946 2944 2943 2942 2940 2939 2938 2936 2934 2933 2931 2930 2928 2926 2925 2924 2923 2922 2921 2920 2919 2918 2917 2916 2915 2914 2913 2911 2910 2909 2908 2907 2906 2906 2905 2904 2904 2903 2902 2900 2900
3024 3021 3018 3015 3011 3008 3005 3001 2998 2995 2991 2987 2984 2980 2977 2973 2970 2967 2964 2962 2959 2957 2955 2953 2952 2950 2949 2947 2945 2944 2943 2942 2940 2939 2938 2936 2935 2933 2931 2930 2928 2927 2925 2924 2924 2922 2921 2920 2919 2918 2917 2916 2915 2915 2914 2913 2911 2910 2909 2908 2907 2906 2906 2905 2904 2903 2902 2901 2900
3024 3021 3018 3015 3011 3008 3005 3002 2999 2995 2992 2988 2985 2981 2977 2974 2971 2968 2965 2962 2960 2957 2955 2954 2952 2950 2948 2947 2945 2944 2943 2942 2940 2940 2938 2937 2935 2934 2932 2931 2929 2927 2926 2925 2924 2923 2922 2921 2920 2918 2917 2916 2915 2914 2913 2912 2911 2910 2909 2908 2908 2907 2906 2905 2904 2903 2902 2901 2900
3025 3021 3018 3015 3012 3009 3005 3002 2999 2996 2992 2989 2985 2982 2978 2975 2971 2968 2965 2963 2960 2958 2956 2954 2952 2950 2949 2947 2945 2944 2943 2942 2940 2940 2938 2937 2936 2935 2933 2932 2930 2929 2928 2926 2925 2923 2922 2921 2920 2918 2917 2915 2915 2914 2913 2912 2911 2910 2909 2908 2907 2906 2905 2904 2903 2902 2901 2900 2899
3025 3021 3018 3015 3012 3009 3006 3003 2999 2996 2993 2990 2986 2982 2979 2975 2972 2969 2966 2963 2961 2958 2956 2954 2952 2950 2949 2947 2945 2944 2943 2942 2940 2940 2938 2937 2936 2935 2934 2933 2932 2931 2930 2928 2925 2924 2922 2920 2920 2918 2917 2915 2914 2913 2912 2911 2910 2909 2908 2907 2906 2905 2904 2903 2901 2900 2900 2898 2897
3025 3022 3019 3015 3012 3009 3006 3003 3000 2997 2994 2990 2987 2983 2980 2976 2973 2970 2967 2964 2961 2959 2956 2954 2952 2950 2949 2947 2945 2944 2943 2941 2940 2940 2938 2937 2936 2935 2934 2933 2933 2933 2932 2930 2926 2924 2922 2920 2919 2918 2916 2915 2914 2913 2911 2910 2909 2908 2907 2906 2905 2903 2902 2901 2900 2899 2898 2896 2895
3025 3022 3019 3016 3013 3010 3006 3003 3000 2997 2994 2991 2987 2984 2981 2977 2974 2971 2968 2965 2962 2959 2956 2954 2952 2950 2949 2947 2946 2944 2943 2941 2940 2939 2938 2937 2936 2935 2934 2934 2933 2933 2934 2931 2926 2923 2922 2921 2919 2918 2916 2914 2913 2911 2910 2909 2908 2907 2905 2904 2903 2902 2900 2899 2898 2897 2895 2895 2893
3025 3022 3019 3016 3013 3010 3007 3004 3000 2997 2994 2991 2988 2985 2982 2979 2975 2972 2969 2965 2963 2960 2957 2955 2953 2951 2950 2948 2946 2945 2943 2941 2940 2939 2938 2937 2936 2935 2934 2934 2932 2932 2933 2932 2927 2923 2921 2920 2919 2918 2916 2914 2912 2911 2909 2908 2907 2905 2904 2902 2901 2900 2899 2897 2896 2895 2894 2892 2891
3025 3022 3019 3016 3013 3010 3007 3004 3001 2998 2995 2992 2989 2986 2983 2980 2976 2973 2970 2966 2963 2960 2958 2955 2953 2952 2950 2948 2946 2945 2943 2942 2940 2939 2938 2937 2936 2935 2934 2933 2932 2931 2930 2931 2928 2924 2921 2920 2919 2917 2916 2914 2912 2911 2909 2908 2906 2905 2903 2901 2900 2899 2897 2896 2895 2893 2892 2891 2889
3025 3022 3019 3016 3013 3010 3007 3005 3001 2999 2995 2993 2990 2987 2984 2980 2977 2974 2970 2967 2964 2961 2958 2955 2954 2952 2950 2948 2947 2945 2943 2942 2940 2939 2938 2937 2935 2935 2934 2933 2932 2930 2930 2929 2929 2926 2921 2919 2918 2917 2915 2914 2912 2910 2909 2908 2906 2904 2903 2901 2899 2898 2896 2895 2893 2892 2890 2889 2888
3025 3022 3019 3016 3013 3010 3008 3005 3002 2999 2996 2993 2990 2987 2984 2981 2978 2975 2971 2968 2965 2962 2959 2956 2954 2952 2950 2949 2947 2945 2944 2942 2941 2939 2938 2936 2935 2934 2933 2932 2931 2930 2929 2928 2928 2926 2922 2919 2917 2916 2915 2913 2912 2910 2909 2907 2905 2904 2902 2901 2899 2897 2895 2894 2892 2890 2889 2888 2886
3025 3022 3019 3016 3014 3011 3008 3005 3002 3000 2997 2994 2991 2988 2985 2982 2979 2976 2973 2970 2966 2963 2960 2957 2955 2953 2950 2949 2947 2945 2944 2942 2941 2939 2938 2936 2935 2934 2933 2931 2930 2929 2928 2927 2927 2926 2924 2919 2916 2915 2914 2913 2911 2910 2908 2906 2905 2903 2902 2900 2899 2897 2895 2893 2891 2890 2888 2886 2885
3025 3022 3019 3016 3014 3011 3008 3005 3003 3000 2997 2994 2991 2989 2986 2983 2980 2977 2974 2971 2967 2964 2961 2959 2956 2953 2951 2949 2947 2945 2944 2942 2941 2939 2938 2936 2935 2934 2932 2931 2930 2929 2928 2927 2926 2925 2924 2921 2916 2914 2913 2912 2910 2909 2907 2906 2904 2903 2901 2900 2898 2896 2894 2892 2890 2889 2887 2885 2883
3025 3022 3019 3016 3014 3011 3008 3005 3003 3000 2997 2995 2992 2989 2986 2984 2981 2978 2975 2971 2969 2965 2963 2960 2957 2955 2952 2950 2948 2946 2944 2942 2940 2939 2938 2936 2935 2933 2932 2930 2929 2928 2927 2926 2925 2924 2923 2922 2918 2914 2912 2910 2909 2908 2907 2905 2903 2902 2900 2899 2897 2895 2893 2891 2890 2888 2886 2884 2882
3025 3022 3020 3017 3014 3011 3008 3005 3003 3000 2998 2995 2992 2990 2987 2984 2981 2978 2975 2972 2970 2967 2964 2961 2958 2955 2953 2950 2948 2946 2944 2942 2940 2939 2937 2936 2935 2933 2932 2930 2929 2928 2926 2925 2924 2923 2922 2921 2919 2915 2911 2910 2908 2907 2906 2904 2903 2901 2899 2897 2896 2894 2892 2890 2889 2887 2885 2883 2881
3025 3023 3020 3017 3014 3011 3009 3006 3003 3000 2998 2995 2993 2990 2987 2985 2982 2979 2976 2973 2970 2968 2965 2962 2959 2956 2954 2951 2949 2947 2945 2942 2940 2939 2937 2936 2935 2933 2932 2930 2929 2928 2926 2925 2923 2922 2921 2920 2920 2916 2911 2909 2907 2906 2905 2903 2902 2900 2898 2896 2895 2893 2891 2889 2888 2886 2884 2882 2880
3026 3023 3020 3017 3015 3012 3009 3006 3003 3001 2998 2995 2993 2990 2988 2985 2983 2980 2977 2974 2971 2969 2966 2963 2960 2957 2955 2952 2950 2948 2945 2943 2941 2939 2937 2936 2935 2933 2932 2931 2930 2928 2926 2925 2923 2921 2920 2918 2919 2917 2913 2909 2906 2905 2904 2902 2901 2899 2897 2895 2893 2891 2890 2888 2886 2885 2883 2881 2880
3026 3023 3020 3018 3015 3012 3009 3006 3004 3001 2998 2996 2993 2991 2988 2986 2983 2980 2978 2975 2972 2970 2967 2964 2961 2958 2955 2953 2951 2949 2946 2944 2942 2940 2938 2936 2935 2933 2932 2931 2930 2928 2926 2924 2922 2921 2919 2917 2917 2917 2915 2910 2906 2904 2903 2901 2900 2897 2895 2893 2891 2890 2888 2886 2885 2884 2882 2880 2879